Date String (YYYY-MM-DD hh:mm:ss) UTC,Instrument flags,Ambient pressure (hPa),Sample flow (lpm),Bypass flow (lpm),Sample temperature (°C),Ambient temperature (°C),ASC tube jacket temperature (°C),LED temperature (°C),Box temperature (°C),Sample RH (%),Span deviation,Mass concentration (μg/m³),Mass concentration (μg/m³),Mass concentration (μg/m³)
DateTimeUTC,F1_M11,P_M11,Q1_M11,Q2_M11,T1_M11,T2_M11,T3_M11,T4_M11,T5_M11,U1_M11,ZSPAN_M11,X2_M11,X0_M11,X1_M11
2023-05-18 21:00:00,,0830.3,5.01,0.00,29.7,28.2,00.0,38.0,31.3,26.7,-000.5,0007.29,0012.56,0006.31
2023-05-18 21:01:00,,0830.3,4.99,0.00,29.7,28.2,00.0,38.1,31.3,26.6,-000.5,0007.39,0013.04,0006.40
2023-05-18 21:02:00,,0830.3,5.00,0.00,29.7,28.3,00.0,38.1,31.3,26.7,-000.5,0007.43,0013.14,0006.46
2023-05-18 21:03:00,,0830.3,5.01,0.00,29.7,28.3,00.0,38.1,31.3,26.7,-000.3,0007.43,0013.08,0006.48
2023-05-18 21:04:00,,0830.3,5.00,0.00,29.7,28.3,00.0,38.1,31.3,26.9,-000.3,0007.45,0012.88,0006.51
2023-05-18 21:05:00,,0830.3,5.00,0.00,29.7,28.3,00.0,38.1,31.3,27.7,-000.0,0007.47,0012.06,0006.54
2023-05-18 21:06:00,,0830.3,5.00,0.00,29.7,28.3,00.0,38.1,31.3,28.8,-000.6,0007.72,0012.32,0006.78
2023-05-18 21:07:00,,0830.4,5.01,0.00,29.7,28.3,00.0,38.1,31.3,29.1,-000.5,0008.20,0013.16,0007.21
2023-05-18 21:08:00,,0830.4,5.02,0.00,29.7,28.3,00.0,38.1,31.3,29.2,-000.4,0008.61,0013.47,0007.66
2023-05-18 21:09:00,,0830.4,5.00,0.00,29.7,28.3,00.0,38.1,31.4,29.2,-000.1,0009.03,0013.72,0008.09
2023-05-18 21:10:00,,0830.4,4.99,0.00,29.8,28.3,00.0,38.1,31.4,29.7,0000.1,0009.46,0014.12,0008.52
2023-05-18 21:11:00,,0830.4,4.99,0.00,29.8,28.3,00.0,38.1,31.4,30.2,0000.0,0009.89,0014.55,0008.97
2023-05-18 21:12:00,,0830.4,5.00,0.00,29.8,28.4,00.0,38.1,31.4,30.5,0000.0,0010.23,0014.60,0009.34
2023-05-18 21:13:00,,0830.4,5.00,0.00,29.8,28.4,00.0,38.2,31.4,30.9,-000.0,0010.66,0014.76,0009.78
2023-05-18 21:14:00,,0830.4,5.01,0.00,29.8,28.4,00.0,38.2,31.4,30.9,0000.0,0011.11,0015.23,0010.21
2023-05-18 21:15:00,,0830.4,5.00,0.00,29.8,28.4,00.0,38.2,31.4,30.5,0000.1,0011.52,0015.68,0010.61
2023-05-18 21:16:00,,0830.4,4.99,0.00,29.8,28.4,00.0,38.2,31.4,30.6,0000.0,0011.89,0016.07,0010.98
2023-05-18 21:17:00,,0830.4,4.99,0.00,29.8,28.4,00.0,38.2,31.4,31.3,0000.0,0012.09,0016.24,0011.21
2023-05-18 21:18:00,,0830.4,5.00,0.00,29.8,28.4,00.0,38.2,31.5,32.1,0000.2,0012.06,0016.07,0011.22
2023-05-18 21:19:00,,0830.5,5.01,0.00,29.8,28.5,00.0,38.2,31.5,31.4,0000.3,0011.98,0015.64,0011.19
2023-05-18 21:20:00,,0830.5,5.01,0.00,29.9,28.5,00.0,38.2,31.5,30.5,0000.2,0011.93,0015.52,0011.16
2023-05-18 21:21:00,,0830.6,5.00,0.00,29.9,28.5,00.0,38.2,31.5,29.3,0000.2,0011.90,0015.49,0011.14
2023-05-18 21:22:00,,0830.6,4.99,0.00,29.9,28.5,00.0,38.2,31.5,29.3,0000.1,0011.85,0015.85,0011.11
2023-05-18 21:23:00,,0830.6,5.01,0.00,29.9,28.5,00.0,38.3,31.5,28.8,0000.3,0011.71,0015.82,0010.97
2023-05-18 21:24:00,,0830.6,5.01,0.00,29.9,28.5,00.0,38.3,31.5,27.8,0000.1,0011.48,0015.66,0010.72
2023-05-18 21:25:00,,0830.5,4.98,0.00,29.9,28.5,00.0,38.3,31.6,27.7,0000.1,0011.20,0015.34,0010.42
2023-05-18 21:26:00,,0830.4,4.99,0.00,29.9,28.6,00.0,38.3,31.6,26.3,-000.1,0010.78,0015.13,0010.05
2023-05-18 21:27:00,,0830.4,5.01,0.00,29.9,28.5,00.0,38.3,31.5,25.7,0000.2,0010.36,0015.03,0009.64
2023-05-18 21:28:00,,0830.4,4.99,0.00,29.9,28.2,00.0,38.3,31.5,25.6,0000.5,0009.92,0014.63,0009.21
2023-05-18 21:29:00,,0830.4,4.99,0.00,29.9,26.5,00.0,38.2,31.3,25.8,0000.5,0009.49,0014.21,0008.79
2023-05-18 21:30:00,,0830.3,5.01,0.00,29.8,25.6,00.0,38.1,31.1,25.9,0000.6,0009.14,0013.82,0008.39
2023-05-18 21:31:00,,0830.3,5.01,0.00,29.7,25.6,00.0,38.1,30.9,25.6,0000.5,0008.81,0013.57,0008.05
2023-05-18 21:32:00,,0830.4,5.00,0.00,29.7,25.8,00.0,38.1,30.9,26.1,0000.6,0008.42,0013.18,0007.68
2023-05-18 21:33:00,,0830.5,4.99,0.00,29.6,26.2,00.0,38.0,31.0,26.7,0000.6,0008.09,0012.64,0007.31
2023-05-18 21:34:00,,0830.4,5.00,0.00,29.6,26.5,00.0,38.0,31.0,27.3,0000.3,0007.82,0012.20,0007.02
2023-05-18 21:35:00,,0830.6,4.99,0.00,29.6,26.8,00.0,38.0,31.0,26.8,0000.7,0007.73,0012.67,0006.92
2023-05-18 21:36:00,,0830.7,5.00,0.00,29.5,27.0,00.0,38.0,31.0,26.5,0001.9,0007.65,0012.68,0006.86
2023-05-18 21:37:00,,0830.7,5.01,0.00,29.5,27.2,00.0,38.0,31.0,26.7,0002.5,0007.67,0012.59,0006.86
2023-05-18 21:38:00,,0830.8,5.01,0.00,29.5,27.3,00.0,38.0,31.0,27.2,0001.2,0007.75,0012.55,0006.89
2023-05-18 21:39:00,,0830.8,5.00,0.00,29.5,27.4,00.0,38.0,31.0,27.2,0000.2,0007.83,0012.65,0006.96
2023-05-18 21:40:00,,0830.9,5.00,0.00,29.5,27.5,00.0,38.0,31.0,26.9,0002.5,0007.95,0012.76,0007.04
2023-05-18 21:41:00,,0831.1,4.99,0.00,29.5,27.5,00.0,37.9,31.0,26.8,0002.2,0008.03,0012.82,0007.13
2023-05-18 21:42:00,,0831.1,5.00,0.00,29.4,27.6,00.0,37.9,31.0,26.9,0002.1,0008.08,0012.82,0007.16
2023-05-18 21:43:00,,0831.2,5.00,0.00,29.4,27.6,00.0,37.9,31.0,26.9,0001.9,0008.16,0012.99,0007.20
2023-05-18 21:44:00,,0831.3,5.01,0.00,29.4,27.6,00.0,37.9,31.0,27.3,0002.1,0008.18,0013.01,0007.24
2023-05-18 21:45:00,,0831.3,5.01,0.00,29.4,27.7,00.0,37.9,31.0,27.2,0002.0,0008.19,0012.81,0007.29
2023-05-18 21:46:00,,0831.4,4.99,0.00,29.4,27.7,00.0,37.9,31.0,27.6,0001.8,0008.25,0012.36,0007.34
2023-05-18 21:47:00,,0831.4,4.99,0.00,29.4,27.8,00.0,37.9,31.0,27.8,0001.3,0008.35,0012.46,0007.40
2023-05-18 21:48:00,,0831.4,5.01,0.00,29.4,27.8,00.0,37.9,31.0,27.6,0000.8,0008.45,0012.57,0007.47
2023-05-18 21:49:00,,0831.4,5.01,0.00,29.5,27.8,00.0,37.9,31.1,27.6,0000.0,0008.58,0013.19,0007.56
2023-05-18 21:50:00,,0831.4,4.99,0.00,29.5,27.9,00.0,37.9,31.1,27.6,-000.2,0008.69,0014.65,0007.62
2023-05-18 21:51:00,,0831.4,5.01,0.00,29.5,27.9,00.0,37.9,31.1,27.6,-000.2,0008.74,0014.84,0007.68
2023-05-18 21:52:00,,0831.4,5.01,0.00,29.5,27.9,00.0,37.9,31.1,27.5,-000.7,0008.80,0015.26,0007.71
2023-05-18 21:53:00,,0831.4,4.98,0.00,29.5,27.9,00.0,37.9,31.1,27.6,-000.7,0008.88,0015.52,0007.73
2023-05-18 21:54:00,,0831.5,5.00,0.00,29.5,27.9,00.0,37.9,31.1,27.6,-000.3,0008.84,0015.42,0007.70
2023-05-18 21:55:00,,0831.5,4.99,0.00,29.5,28.0,00.0,37.9,31.1,27.5,-000.3,0008.84,0015.53,0007.67
2023-05-18 21:56:00,,0831.5,5.00,0.00,29.5,28.0,00.0,37.9,31.1,27.7,0000.0,0008.91,0015.77,0007.65
2023-05-18 21:57:00,,0831.5,5.00,0.00,29.5,28.0,00.0,37.9,31.2,27.9,0000.0,0008.91,0015.93,0007.59
2023-05-18 21:58:00,,0831.5,5.00,0.00,29.5,28.0,00.0,37.9,31.1,27.6,0000.0,0008.69,0015.64,0007.41
2023-05-18 21:59:00,,0831.6,4.98,0.00,29.5,28.0,00.0,37.9,31.1,27.7,0000.4,0008.43,0015.35,0007.18
